Regional Weather Roundup
Issued by NWS Portland, ME

Current Version | Previous Version | Text Only | Print | Product List | Glossary On
Versions: 1 2 3 4 5 6 7 8 9 10 11 12 13 14 15 16 17 18 19 20 21 22 23 24 25 26 27 28 29 30 31 32 33 34 35 36 37 38 39 40 41 42 43 44 45 46 47 48 49 50
000 ASUS41 KGYX 181010 RWRGYX WEATHER ROUNDUP FOR MAINE AND NEW HAMPSHIRE NATIONAL WEATHER SERVICE GRAY ME 600 AM EDT FRI APR 18 2014 MEZ002-005-006-010-012-015-018-020-021-024-026-027-029-181100- MAINE CITY SKY/WX TMP DP RH WIND PRES REMARKS PORTLAND PTCLDY 25 21 85 CALM 30.64F SANFORD CLEAR 18 -27 12 CALM 30.59F BAR HARBOR CLEAR 25 25 100 N5 30.65F WISCASSET CLEAR 23 20 88 CALM 30.66R ROCKLAND CLEAR 30 27 86 N6 30.64S FRYEBURG CLEAR 18 15 88 CALM 30.61F LEWISTONAUBURN CLEAR 21 18 86 CALM 30.62S AUGUSTA CLEAR 24 20 84 CALM 30.63S WATERVILLE CLEAR 25 21 86 N3 30.59S BANGOR PTCLDY 22 19 89 CALM 30.66R GREENVILLE N/A 25 16 68 CALM 30.54S MILLINOCKET CLEAR 22 18 85 CALM 30.64S HOULTON PTCLDY 19 17 92 CALM 30.63S PRESQUE ISLE PTCLDY 25 18 74 CALM 30.63S FRENCHVILLE PTCLDY 25 15 66 SE8 30.57F CARIBOU PTCLDY 27 17 66 CALM 30.61S $$ NHZ002-005-008-009-011-012-014-181100- NEW HAMPSHIRE CITY SKY/WX TMP DP RH WIND PRES REMARKS PORTSMOUTH MOCLDY 28 23 82 NE6 30.59F ROCHESTER CLEAR 24 21 88 NW3 30.59F NASHUA CLEAR 26 24 92 CALM 30.58F MANCHESTER CLEAR 27 22 81 N3 30.56F CONCORD CLEAR 21 18 88 CALM 30.59F LACONIA CLEAR 21 19 93 E3 30.58F PLYMOUTH N/A 22 21 97 CALM 30.58F BERLIN CLEAR 20 17 88 CALM 30.54F WHITEFIELD CLEAR 21 17 84 CALM 30.54F JAFFREY CLEAR 23 20 88 CALM 30.53F LEBANON CLEAR 21 16 81 CALM 30.55F MT WASHINGTON PTCLDY 23 -29 9 SW16 N/A WCI 10 $$ VTZ005-007-008-181100- VERMONT CITY SKY/WX TMP DP RH WIND PRES REMARKS ST JOHNSBURY N/A 25 19 78 MISG 30.54F MONTPELIER PTCLDY 26 13 57 SE5 30.55F BURLINGTON PTCLDY 32 15 49 SE6 30.49F $$ MAZ007-012-024-CTZ003-RIZ002-NYZ038-NYZ072-181100- SOUTHERN NEW ENGLAND AND NY CITY SKY/WX TMP DP RH WIND PRES REMARKS BOSTON PTCLDY 31 26 82 N8 30.58F WORCESTER MOCLDY 26 22 84 NE12 30.50F WCI 16 NANTUCKET MOCLDY 37 31 78 NE8 30.53R PROVIDENCE PTCLDY 30 25 81 N8 30.54F HARTFORD PTCLDY 27 23 85 N6 30.52F ALBANY PTCLDY 28 20 71 CALM 30.50F NEW YORK CITY MOCLDY 36 25 64 NE13 30.53R $$ ANZ081-ANZ082-ANZ150-NHZ014-MEZ023>029-181100- COASTAL MARINE OBSERVATIONS STATION/POSITION TIME TEMP WIND PRES WAVE AIR SEA DIR/SP/G HT/PER (UTC) (F) (DEG/KT/KT) (MB) (FT/S) MOUNT DESERT ROC 1000 36 1037.1S MATINICUS ROCK 1000 35 40/ 11/ 12 1037.2F PORTLAND WX BUOY 1000 35 39 30/ 10/ 12 1037.4R 3/ 9 WELLS 1000 27 38 20/ 7/ 8 1036.1F ISLE OF SHOALS 1000 33 30/ 16/ 18 1035.4F JEFFREYS LEDGE 1000 41 N/A 5/ 8 CASHES LEDGE BUO 1000 38 40 70/ 10/ 14 1037.1R 5/ 8 $$ .............KEY.............. WCI - WIND CHILL TC - TEMPERATURE IN CELSIUS VSB - VISIBILITY IN MILES HX - HEAT INDEX FAIR- INDICATES FEW OR NO CLOUDS BELOW 12,000 FT, WITH NO SIGNIFICANT WEATHER AND/OR OBSTRUCTIONS TO VISIBILITY.

USA.gov is the U.S. government's official web portal to all federal, state and local government web resources and services.